Torna al catalogo

DELTA 1 DEB

AttivoSSO
NORAD 7057·DEBRIS·🇺🇸 United States

Lanciato Nov 6, 1973 da Vandenberg Space Force Base

Loading…

Prossimi Passaggi (prossime 24 ore)

TLE

AggiornatoSource: Space-Track

Epoca: Sep 14, 2026, 12:37 UTC

1 07057U 73086AZ  26257.52618475 -.00000054  00000-0 -69463-4 0  9996
2 07057 102.4217 280.9545 0034495 159.6375   9.2446 12.33042843378915

Traccia DELTA 1 DEB in tempo reale con AllMySat

Download on the App Store